JO-97
1 43803U 18099AX  24341.63294473  .00017302  00000-0  95476-3 0  9994
2 43803  97.4966  36.9552 0009771  72.6607 287.5692 15.13975314328723
Suomi 100
1 43804U 18099AY  24341.60685679  .00015190  00000-0  87276-3 0  9996
2 43804  97.5032  36.6122 0015248  71.8795 288.4095 15.12496341328683
ISAT
1 43879U 18111D   24341.48879347  .00025724  00000-0  12176-2 0  9996
2 43879  97.6058 247.1542 0013167 116.2956 243.9632 15.19257053325491
UWE-4
1 43880U 18111E   24341.23756067  .00021765  00000-0  10927-2 0  9997
2 43880  97.5988 246.3855 0015924 129.0365 231.2288 15.17203282325446
Sparrow
1 43881U 18111F   24341.25991520  .00025057  00000-0  11621-2 0  9995
2 43881  97.6171 249.2067 0009233 148.2802 211.8991 15.20007585325531
Prox-1
1 44339U 19036A   24341.83170522  .00017209  00000-0  25547-2 0  9998
2 44339  23.9966 189.5711 0007449 128.9391 231.1769 14.73433525290769
SONATE
1 44400U 19038Q   24341.59354659  .00051742  00000-0  93136-3 0  9997
2 44400  97.7129 345.1413 0010559 194.9817 165.1122 15.49600560300624
Taurus 1
1 44530U 19059C   24341.79834208  .00014296  00000-0  29250-2 0  9997
2 44530  98.5893 107.3398 0010677 243.2589 116.7518 14.60876627276916
Duchifat 3
1 44854U 19089C   24341.61009248  .00038702  00000-0  13751-2 0  9995
2 44854  36.9512  74.2547 0010549 104.4551 255.7371 15.28061565274474
TO-108
1 44881U 19093C   24341.76289679  .00002756  00000-0  33033-3 0  9990
2 44881  97.8135  55.1871 0015280 115.6953 244.5841 14.84794773268641
FloripaSat 1
1 44885U 19093G   24341.75972733  .00010862  00000-0  10069-2 0  9993
2 44885  97.8297  63.4000 0012137 103.1337 257.1238 14.94582230269102
RS-44
1 44909U 19096E   24341.50087544  .00000020  00000-0  37326-4 0  9995
2 44909  82.5215 350.2732 0217645   8.6466 351.8288 12.79736647231012
UPMSat 2
1 46276U 20061E   24341.45723621  .00040579  00000-0  82395-3 0  9993
2 46276  97.2734  46.7531 0000784 161.2067 198.9212 15.46233224236675
AmicalSat
1 46287U 20061R   24341.62662269  .00262122  00000-0  17469-2 0  9993
2 46287  97.3176  51.9320 0002859 287.0979  72.9972 15.74622330236277
SALSAT
1 46495U 20068K   24341.62924899  .00012647  00000-0  62352-3 0  9998
2 46495  97.8401 306.0330 0015119  82.2090 278.0859 15.17981799230429
IDEASSat
1 47458U 21006AX  24341.75340385  .01809807  29159-2  16451-2 0  9996
2 47458  97.2803  46.2002 0005970 303.3038  56.7675 16.13304685215487
CubeSX-Sirius-HSE
1 47951U 21022V   24341.77980318  .00059577  00000-0  13871-2 0  9995
2 47951  97.4394 241.1676 0006567 235.7840 124.2785 15.42061072205008
CubeSX-HSE
1 47952U 21022W   24341.77573766  .00058590  00000-0  13476-2 0  9996
2 47952  97.4390 241.3083 0006707 232.7643 127.2993 15.42430578205019
KSU-Cubesat
1 47954U 21022Y   24341.27928652  .00098975  00000-0  16676-2 0  9997
2 47954  97.4400 243.4368 0004622 207.9578 152.1427 15.51330033204829
GRBAlpha
1 47959U 21022AD  24341.79877629  .00059309  00000-0  13647-2 0  9999
2 47959  97.4393 241.4995 0006561 232.7897 127.2752 15.42416166203840
Orbicraft-Zorkiy
1 47960U 21022AE  24341.82332916  .00082363  00000-0  15638-2 0  9998
2 47960  97.4430 243.7504 0004861 221.8071 138.2809 15.47985840204659
TUBIN
1 48900U 21059X   24341.79518778  .00038131  00000-0  89523-3 0  9990
2 48900  97.6622 133.0178 0005255 193.0004 167.1108 15.41926116191407
LEDSAT
1 49069U 21073D   24341.18328651  .00041817  00000-0  11266-2 0  9998
2 49069  97.4165  52.3032 0015064  34.6236 325.5986 15.37598299182756
CUTE
1 49263U 21088D   24341.64491193  .00046968  00000-0  14255-2 0  9996
2 49263  97.4754  47.7690 0010854 189.0139 171.0910 15.33891370175938
TeikyoSat 4
1 49396U 21102B   24341.55967977  .00003710  00000-0  25704-3 0  9998
2 49396  97.4371  20.5547 0014277  52.4631 307.7891 15.06155400168680
Z-Sat
1 49399U 21102E   24341.78335691  .00007839  00000-0  46307-3 0  9996
2 49399  97.4086  22.8821 0019910  28.4945 331.7370 15.11600840169034
KOSEN 1
1 49402U 21102H   24341.54215897  .00012350  00000-0  64338-3 0  9998
2 49402  97.4000  24.8486 0017466   9.8730 350.2843 15.16003396169212
HO-113
1 50466U 21131B   24341.80036023  .00001579  00000-0  51181-3 0  9996
2 50466  98.5213  66.0688 0003644 344.3565  15.7510 14.40324308154842
IRIS-A
1 51044U 22002BN  24341.66104043  .00059938  00000-0  11590-2 0  9990
2 51044  97.3602  48.9816 0004843 130.5186 229.6486 15.47552149160931
Foresail-1
1 52766U 22057AL  24341.62420279  .00055804  00000-0  10710-2 0  9991
2 52766  97.5979 113.0938 0007405 237.7508 122.3024 15.47771532140963
SNUGLITE 2
1 52899U 22065F   24341.66021816  .00003105  00000-0  62581-3 0  9996
2 52899  98.1423 119.8774 0007123 340.9855  19.1079 14.62180652129459
IO-117
1 53106U 22080B   24340.33076919 -.00000003  00000-0  00000-0 0  9992
2 53106  70.1317 133.0636 0008362  68.7653 291.3899  6.42557789 56265
FO-118
1 54684U 22167C   24341.80231285  .00119631  00000-0  17193-2 0  9992
2 54684  97.6149 133.4918 0008203 257.9868 102.0467 15.55638275110865
SSS-2B
1 56184U 23054G   24341.80288386  .00486335  90982-4  16802-2 0  9995
2 56184  97.3357 244.7837 0005420 112.9043 247.2802 15.89485631 92978
SO-120
1 56992U 23084BU  24341.63065868  .00152869  00000-0  20252-2 0  9998
2 56992  97.5370 105.8177 0003898 143.4372 216.7150 15.57753680 82701
MRC-100
1 56993U 23084BV  24341.34761023  .00337337  00000-0  24007-2 0  9990
2 56993  97.5325 107.2987 0001369 247.9901 112.1217 15.72866868 82787
UmKA 1 (RS40S)
1 57172U 23091G   24341.76691433  .00011045  00000-0  65229-3 0  9998
2 57172  97.5878  32.2832 0014355 249.9261 110.0424 15.11597273 79525
CubeBel-2 (EU11S)
1 57175U 23091K   24341.83519994  .00015512  00000-0  86230-3 0  9998
2 57175  97.5879  32.6415 0012490 261.4224  98.5592 15.13714580 79559
VERONIKA
1 58261U 23174F   24341.78115296  .00048925  00000-0  13891-2 0  9994
2 58261  97.4407  56.3318 0008907 353.4642   6.6484 15.36002678 60059
KAFASAT
1 58317U 23174BP  24341.63831767  .00088563  00000-0  18096-2 0  9992
2 58317  97.4336  58.0603 0007570 320.5490  39.5207 15.45807611 60170
ENSO
1 58470U 23185J   24341.78891010  .00039222  00000-0  11339-2 0  9998
2 58470  97.4032  47.7591 0010249  31.6254 328.5604 15.35475155 56506
EIRSAT-1
1 58472U 23185L   24341.81871150  .00047523  00000-0  12726-2 0  9991
2 58472  97.4024  48.1409 0009436  30.1735 330.0051 15.37826705 56536
SONATE-2
1 59112U 24043Q   24341.29487751  .00022875  00000-0  87600-3 0  9996
2 59112  97.4953 104.3322 0013522  53.2921 306.9557 15.26466238 41987
MO-122
1 60209U 24125G   24341.33916382  .00023654  00000-0  89878-3 0  9993
2 60209  97.2983 190.0046 0024788  78.0920 282.3096 15.26509853 23607
GRBBeta
1 60237U 24128C   24341.63947742  .00007530  00000-0  61750-3 0  9998
2 60237  61.9944   3.0014 0030167  10.9774 349.1967 14.99673760 22438
Curium One
1 60242U 24128H   24341.33651222  .00012361  00000-0  98771-3 0  9997
2 60242  61.9848   4.1304 0030422   2.4918 357.6318 15.00232536 22395
ROBUSTA-3A
1 60243U 24128J   24341.49328522  .00012154  00000-0  97955-3 0  9992
2 60243  61.9916   3.8948 0028511   0.2731 359.8369 14.99956058 22419
CatSat
1 60246U 24125J   24341.52004191  .00018606  00000-0  73476-3 0  9999
2 60246  97.2787 190.9668 0049371  32.7418 327.6863 15.24412343 21735
CosmoGirlSat
1 60953U 98067WT  24341.52087221  .02331960  76704-2  17048-2 0  9996
2 60953  51.6087 167.6327 0010728 269.8409  90.1378 16.16742977 15565
CySat-1
1 61501U 98067WZ  24341.55070072  .00281378  00000-0  19228-2 0  9996
2 61501  51.6296 176.9751 0012997 247.5170 112.4453 15.73306568  9276
AO-123
1 99130U 20499A   24341.53332176  .00005447  00000-0  22705-3 0 00002
2 99130 097.3798 205.8309 0018938 127.8166 045.2342 15.23602968000017
